sat.trackr.live / text

‹ back to catalog

STARLINK-32812

NORAD 63038 · 2025-034K

PAYLOAD ACTIVE UNKNOWN

§ Identity

Operator
Country
US
Launch date
2025-02-18
Launch site
AFETR
Launch vehicle
Mass (kg)
RCS (m²)

Purposes: comms

External: N2YO · Heavens-Above · Gunter

§ Orbital elements

Epoch: 2026-05-25T03:54:24.624000Z

Period
94.09 min
Inclination
53.1581°
Eccentricity
0.0007546
Mean motion
15.30421520 rev/d
Perigee alt
469.4 km
Apogee alt
479.7 km
Semi-major
6,852.7 km
B*
9.1467e-3
RAAN
263.0202°
Arg perigee
153.7919°
Mean anomaly
206.3465°
Rev number
7,079

§ Raw data

STARLINK-328121 63038U 25034K   26145.16278500  .00283139  00000+0  91467-2 0  99952 63038  53.1581 263.0202 0007546 153.7919 206.3465 15.30421520 70799

JSON: /api/v1/satellites/63038 · /tle

For live sub-satellite position, see the globe view (requires WebGL).

§ Visibility from observer

Set your observer location to see the next 7 days of passes ≥ 10°. The values pass through the URL so the page stays shareable.

No JS? Fill the form by hand. The geolocation button needs JavaScript.